Flag for Canada Weather past 2 weeks in MD of Lunenburg, Nova Scotia, Canada

Now
52 °F

Cool.


Feels Like: 49 °F
Forecast: 48 / 64 °F
Wind: 7 mph from Northeast

Location: McNabs Island - AUT

Current Time: Oct 2, 2014 at 1:46:17 AM

Latest Report: Oct 2, 2014 at 1:00 AM


Visibility: N/A

Pressure: 30.16 "Hg

Humidity: 83%

Dew point: 47 °F

Location of MD of LunenburgLocation

Historic Weather in MD of Lunenburg — Graph

°F

MD of Lunenburg temperature yesterday

Maximum temperature yesterday: 62 °F (at 11:00 AM)
Minimum temperature yesterday: 53 °F (at 11:00 PM)
Average temperature yesterday: 58 °F

Past Weeks' High & Low Weather Summary

 TemperatureHumidityPressure
High76 °F (Sep 27, 4:00 PM)100% (Sep 22, 2:00 AM)30.61 "Hg (Sep 22, 2:00 AM)
Low44 °F (Sep 20, 3:00 AM)33% (Sep 19, 6:00 PM)29.39 "Hg (Sep 22, 7:00 AM)
Average58 °F76%30.10 "Hg
* Reported Midnight between Sep 16 and Sep 17 — Midnight between Oct 1 and Oct 2, MD of Lunenburg, Weather by CustomWeather, © 2014

Note: Actual official high and low records may vary slightly from our data, if they occured in-between our weather recording intervals... More about our weather records

Advertising

MD of Lunenburg weather history for previous 24 hours

 ConditionsComfort  
Time TempWeatherWind HumidityBarometerVisibility
12:00 AM
Oct 2
53 °FCool.7 mph81%30.16 "HgN/A
11:00 PM
Oct 1
53 °FCool.9 mph81%30.17 "HgN/A
10:00 PM54 °FCool.10 mph81%30.17 "HgN/A
9:00 PM55 °FCool.9 mph83%30.16 "HgN/A
8:00 PM57 °FCool.7 mph84%30.14 "HgN/A
7:00 PM57 °FCool.6 mph92%30.12 "HgN/A
6:00 PM56 °FCool.7 mph96%30.11 "HgN/A
5:00 PM58 °FCool.12 mph90%30.11 "HgN/A
4:00 PM59 °FCool.13 mph89%30.10 "HgN/A
3:00 PM60 °FCool.12 mph88%30.09 "HgN/A
2:00 PM61 °FCool.6 mph90%30.10 "HgN/A
1:00 PM60 °FCool.9 mph88%30.12 "HgN/A
12:00 PM62 °FCool.8 mph80%30.12 "HgN/A
11:00 AM62 °FCool.9 mph81%30.11 "HgN/A
10:00 AM61 °FCool.8 mph85%30.11 "HgN/A
9:00 AM59 °FCool.7 mph91%30.09 "HgN/A
8:00 AM58 °FCool.5 mph94%30.08 "HgN/A
7:00 AM58 °FCool.2 mph95%30.07 "HgN/A
6:00 AM57 °FCool.3 mph95%30.06 "HgN/A
5:00 AM57 °FCool.5 mph96%30.05 "HgN/A
4:00 AM57 °FCool.1 mph96%30.05 "HgN/A
3:00 AM57 °FCool.5 mph95%30.06 "HgN/A
2:00 AM57 °FCool.2 mph96%30.06 "HgN/A
1:00 AM58 °FCool.6 mph96%30.06 "HgN/A
Weather by CustomWeather, © 2014

See weather overviewHow to use our weather pages